Cape Girardeau, MO

11:09 PM CST on December 13, 2019 (GMT -0600)
Cape Girardeau Regional

Weather History for KCGI - November, 2019

Change the Weather History Date:

Sunday, November 17, 2019

  Actual Average Record
Temperature  
Mean Temperature 38 °F 46 °F  
Max Temperature 50 °F 57 °F 79 °F (2016)
Min Temperature 25 °F 36 °F 14 °F (1997)
Degree Days  
Heating Degree Days 27 19  
Month to date heating degree days 440 264  
Since 1 July heating degree days 701 567  
Cooling Degree Days 0 0  
Month to date cooling degree days 0 0  
Year to date cooling degree days 1775 1451  
Moisture  
Dew Point 32 °F    
Average Humidity 81    
Maximum Humidity 96    
Minimum Humidity 65    
Precipitation  
Precipitation 0.00 in 0.15 in 3.05 in (2015)
Month to date precipitation 2.08 2.39  
Year to date precipitation 57.59 40.51  
Sea Level Pressure  
Sea Level Pressure 30.03 in    
Wind  
Wind Speed 3 mph (WSW)    
Max Wind Speed 13 mph    
Max Gust Speed 16 mph    
Visibility 4 miles    
Events      
T = Trace of Precipitation, MM = Missing Value Source: NWS Daily Summary

Daily Weather History Graph

Daily Weather History Graph

Search for Another Location

Airport or City:

Astronomy

Nov. 17, 2019 Rise Set
Actual Time 6:39 AM CST 4:46 PM CST
Civil Twilight 6:11 AM CST 5:14 PM CST
Nautical Twilight 5:39 AM CST 5:46 PM CST
Astronomical Twilight 5:08 AM CST 6:17 PM CST
Moon 9:25 PM CST (11/17) 11:22 AM CST (11/17)
Length of Visible Light 11h 03m
Length of Day
10h 07m
Waning Gibbous, 73% of the Moon is Illuminated
Nov 17
Waning Gibbous
Nov 19
Last Quarter
Nov 26
New
Dec 4
First Quarter
Dec 11
Full

Hourly Weather History & Observations

Time (CST) Temp. Windchill Dew Point Humidity Pressure Visibility Wind Dir Wind Speed Gust Speed Precip Events Conditions
12:53 AM 30.0 °F - 27.0 °F 88% 30.17 in 4.0 mi Calm Calm - N/A   Clear
1:53 AM 30.0 °F - 27.0 °F 88% 30.16 in 3.0 mi Calm Calm - N/A   Clear
2:53 AM 30.0 °F - 27.0 °F 88% 30.14 in 3.0 mi Calm Calm - N/A   Clear
4:22 AM 27.0 °F - 25.0 °F 92% 30.11 in 2.5 mi Calm Calm - N/A   Clear
4:53 AM 27.0 °F - 25.0 °F 92% 30.11 in 2.5 mi Calm Calm - N/A   Clear
5:53 AM 28.9 °F 25.2 °F 26.1 °F 89% 30.12 in 2.5 mi West 3.5 mph - N/A   Clear
6:36 AM 28.0 °F - 26.1 °F 92% 30.10 in 1.5 mi Calm Calm - N/A   Clear
6:53 AM 28.0 °F - 26.1 °F 92% 30.11 in 1.5 mi Calm Calm - N/A   Clear
7:24 AM 28.0 °F - 26.1 °F 92% 30.10 in 2.5 mi Calm Calm - N/A   Clear
8:24 AM 33.1 °F - 30.0 °F 89% 30.10 in 2.0 mi Calm Calm - N/A   Clear
8:53 AM 34.0 °F - 32.0 °F 92% 30.10 in 2.0 mi Calm Calm - N/A   Clear
9:53 AM 39.9 °F - 34.0 °F 79% 30.09 in 3.0 mi Calm Calm - N/A   Haze
10:53 AM 42.1 °F 40.2 °F 36.0 °F 79% 30.06 in 4.0 mi WSW 3.5 mph - N/A   Haze
11:53 AM 46.0 °F 41.0 °F 36.0 °F 68% 30.04 in 5.0 mi West 10.4 mph - N/A   Haze
12:53 PM 46.9 °F - 35.1 °F 63% 29.99 in 5.0 mi West 4.6 mph - N/A   Haze
1:53 PM 48.0 °F - 37.0 °F 66% 29.96 in 7.0 mi West 10.4 mph - N/A   Clear
2:53 PM 48.0 °F - 37.0 °F 66% 29.95 in 6.0 mi SW 4.6 mph - N/A   Haze
3:53 PM 46.9 °F - 37.0 °F 68% 29.94 in 7.0 mi South 5.8 mph - N/A   Clear
4:53 PM 45.0 °F 43.5 °F 37.0 °F 74% 29.92 in 7.0 mi SSE 3.5 mph - N/A   Mostly Cloudy
5:53 PM 45.0 °F 41.8 °F 37.0 °F 74% 29.94 in 9.0 mi West 5.8 mph - N/A   Overcast
6:53 PM 42.1 °F 40.2 °F 37.0 °F 82% 29.94 in 7.0 mi West 3.5 mph - N/A   Mostly Cloudy
7:53 PM 42.1 °F 39.2 °F 36.0 °F 79% 29.92 in 7.0 mi SSW 4.6 mph - N/A   Overcast
8:53 PM 41.0 °F 39.0 °F 36.0 °F 82% 29.92 in 7.0 mi WNW 3.5 mph - N/A   Mostly Cloudy
9:53 PM 39.0 °F 34.8 °F 36.0 °F 89% 29.91 in 6.0 mi West 5.8 mph - N/A   Overcast
10:53 PM 37.9 °F 34.4 °F 35.1 °F 89% 29.90 in 5.0 mi West 4.6 mph - N/A   Mostly Cloudy
11:53 PM 39.0 °F 36.8 °F 36.0 °F 89% 29.90 in 5.0 mi WSW 3.5 mph - N/A   Overcast